Home > Weather > Hobart > Past weeks

Flag for Australia Weather for the Past 2 Weeks in Hobart, Tasmania, Australia

Now
59 °F

Broken clouds.


Feels Like: 58 °F
Forecast: 54 / 67 °F
Wind: 7 mph from Northeast

Location: Hobart Airport

Current Time: May 5, 2016 at 7:52:10 AM

Latest Report: May 5, 2016 at 7:00 AM


Visibility: N/A

Pressure: 29.71 "Hg

Humidity: 59%

Dew Point: 45 °F

Location of HobartLocation

Historic Weather in Hobart — Graph

°F

Hobart Temperature Yesterday

Maximum temperature yesterday: 59 °F (at 3:00 PM)
Minimum temperature yesterday: 41 °F (at 7:00 AM)
Average temperature yesterday: 51 °F

High & Low Weather Summary for the Past Weeks

 TemperatureHumidityPressure
High79 °F (Apr 20, 2:30 PM)100% (Apr 28, 12:30 PM)30.42 "Hg (Apr 28, 12:30 PM)
Low41 °F (May 4, 7:00 AM)15% (Apr 20, 1:30 PM)29.15 "Hg (May 1, 3:00 PM)
Average58 °F63%29.93 "Hg
* Reported Apr 20 4:00 AM — May 5 4:00 AM, Hobart, Weather by CustomWeather, © 2016

Note: Actual official high and low records may vary slightly from our data, if they occured in-between our weather recording intervals... More about our weather records

Advertising

Hobart Weather History for the Previous 24 Hours

Scroll right to see more
 ConditionsComfort  
Time TempWeatherWind HumidityBarometerVisibility
4:00 AM
Thu, May 5
59 °FPassing clouds.14 mph51%29.68 "HgN/A
3:30 AM59 °FPassing clouds.14 mph51%29.68 "HgN/A
3:00 AM59 °FPassing clouds.10 mph51%29.68 "HgN/A
2:30 AM59 °FRefreshingly cool.14 mph51%29.68 "HgN/A
2:00 AM59 °FPassing clouds.13 mph51%29.68 "HgN/A
1:00 AM57 °FPassing clouds.14 mph55%29.68 "HgN/A
12:30 AM57 °FRefreshingly cool.9 mph55%29.68 "HgN/A
12:00 AM57 °FPassing clouds.8 mph55%29.68 "HgN/A
11:30 PM
Wed, May 4
55 °FMostly cloudy.8 mph59%29.68 "HgN/A
11:00 PM57 °FPassing clouds.9 mph51%29.71 "HgN/A
10:00 PM55 °FPassing clouds.14 mph55%29.71 "HgN/A
9:00 PM55 °FClear.14 mph51%29.71 "Hg10 mi
8:00 PM55 °FPassing clouds.8 mph51%29.71 "HgN/A
7:00 PM54 °FClear.9 mph54%29.71 "Hg10 mi
6:30 PM55 °FClear.13 mph47%29.71 "Hg10 mi
6:00 PM55 °FPassing clouds.13 mph47%29.71 "HgN/A
5:00 PM55 °FPassing clouds.7 mph51%29.71 "HgN/A
4:00 PM57 °FPassing clouds.17 mph44%29.68 "HgN/A
3:30 PM57 °FScattered clouds.16 mph44%29.68 "HgN/A
3:00 PM59 °FScattered clouds.16 mph42%29.68 "HgN/A
2:30 PM57 °FPassing clouds.14 mph44%29.68 "HgN/A
2:00 PM57 °FScattered clouds.18 mph44%29.68 "HgN/A
1:00 PM57 °FScattered clouds.17 mph48%29.71 "HgN/A
12:47 PM57 °FPartly sunny.17 mph48%29.71 "HgN/A
12:00 PM55 °FPartly sunny.12 mph47%29.71 "HgN/A
11:30 AM55 °FScattered clouds.15 mph47%29.71 "HgN/A
11:00 AM55 °FScattered clouds.14 mph47%29.71 "HgN/A
10:30 AM54 °FPassing clouds.13 mph51%29.71 "HgN/A
10:00 AM52 °FPassing clouds.13 mph54%29.71 "HgN/A
9:30 AM52 °FPassing clouds.12 mph54%29.71 "HgN/A
9:00 AM48 °FPassing clouds.10 mph62%29.68 "HgN/A
8:30 AM46 °FPassing clouds.12 mph66%29.68 "HgN/A
8:00 AM46 °FPassing clouds.10 mph66%29.68 "HgN/A
7:00 AM41 °FPassing clouds.7 mph81%29.65 "HgN/A
Weather by CustomWeather, © 2016

See weather overviewHow to use our weather pages